Погода в Таборах

Россия / Пермский край     57°49′42″N   55°09′06″E
темп.,
°C
ветер,
м/с
пор.,
м/с
влажн.,
%
обл.,
%
осадки,
мм/ч
давл.,
гПа
погр.,
м
16 сентября, чт
чт1623:00+6юз4991100 1.5 999758
02:00+5з4994100 0.4 1000868
05:00+4з4995100 0.6 1001653
08:00+5зсз4896100 0.3 1001823
11:00+6зсз5776100 0.4 10021130
14:00+5з6986100 0.1 1002985
17:00+4зсз61197100 1.1 1002874
20:00+4сз51097100 1.1 10031003
17 сентября, пт
пт1723:00+5сз61193100 1.4 10031227
02:00+6сз61094100 0.4 10041057
05:00+6сз51093100 0.6 1005818
08:00+5ссз5993100 0.2 1006822
11:00+6ссз4889100 0.3 1007743
14:00+7ссз4784100 0.2 1009748
17:00+5с3690100 0.5 1010794
20:00+4ссз2596100 0.9 1011768
18 сентября, сб
сб1823:00+4зсз1393100 1.5 1011285
02:00+3зсз3795100 0.0 1011285
05:00+3ссз3797100 0.0 1012439
08:00+2ссз4897100 0.2 1012575
11:00+3ссз4882100 0.3 1013901
14:00+6ссз5871100 0.4 10131343
17:00+6сз51070100 0.7 10131355
20:00+4сз5117898 0.1 1014852
19 сентября, вс
вс1923:00+2сз61186100 0.1 1014824
02:00+3сз61183100 0.1 10141161
05:00+2сз61185100 0.1 10141037
08:00+2сз61189100 0.1 10151024
11:00+4сз61177100 0.3 10161086
14:00+6сз61061100 0.1 10171432
17:00+7ссз5955100 0.1 10181468
20:00+3сз2671100 0.0 1020155
20 сентября, пн
пн2023:00+3сз277867 0.0 1021238
02:000зсз239235 0.0 102367
05:00−1сз119599 0.0 102516
08:00−1зсз129129 0.0 102774
11:00+5ссз23615 0.0 1027696
14:00+8ссз2350100 0.0 10281259
17:00+8с235016 0.0 10281316
20:00+3св237625 0.0 102948